CW5212 Weather Reports


Display with metric or nautical units.
time (UTC)temp
F
wind
direction
speed
MPH
gust
MPH
rain 1hr
in
rain 24hr
in
rain mn
in
humidity
%
barometer
mb
20260905131538 45 245 2.0 5.0 0.00 0.00 0.00 75 944.3
20260905130012 45 264 3.0 8.0 0.00 0.00 0.00 74 944.1
20260905124550 46 259 4.0 9.0 0.00 0.00 0.00 73 944.0
20260905123026 46 248 6.0 12.0 0.00 0.00 0.00 72 943.9
20260905121505 47 244 7.0 9.0 0.00 0.00 0.00 71 943.7
20260905120040 47 253 5.0 8.0 0.00 0.00 0.00 70 943.6
20260905114520 48 226 5.0 8.0 0.00 0.00 0.00 69 943.6
20260905113054 48 261 5.0 9.0 0.00 0.00 0.00 69 943.4
20260905113001 48 231 5.0 9.0 0.00 0.00 0.00 69 943.4
20260905111536 48 207 7.0 14.0 0.00 0.00 0.00 69 943.5
20260905110014 47 273 7.0 12.0 0.00 0.00 0.00 70 943.4
20260905104602 48 239 9.0 15.0 0.00 0.00 0.00 71 943.2
20260905103026 48 239 6.0 12.0 0.00 0.00 0.00 70 943.2
20260905101604 48 257 8.0 13.0 0.00 0.00 0.00 69 943.0
20260905101502 48 242 7.0 13.0 0.00 0.00 0.00 69 942.9
20260905100043 48 223 5.0 8.0 0.00 0.00 0.00 70 942.8
20260905094516 49 212 5.0 12.0 0.00 0.00 0.00 68 942.5
20260905093054 50 231 7.0 11.0 0.00 0.00 0.00 68 942.4
20260905091538 50 234 5.0 9.0 0.00 0.00 0.00 67 942.3
20260905090010 51 250 5.0 11.0 0.00 0.00 0.00 66 942.1
20260905084547 51 272 9.0 13.0 0.00 0.00 0.00 64 941.9
20260905083023 51 244 9.0 12.0 0.00 0.00 0.00 65 941.7
20260905081600 51 252 8.0 13.0 0.00 0.00 0.00 64 941.7
20260905081502 51 243 8.0 13.0 0.00 0.00 0.00 64 941.7
20260905080037 52 239 8.0 13.0 0.00 0.00 0.00 63 941.5
20260905074507 52 238 9.0 13.0 0.00 0.00 0.00 61 941.4
20260905073044 52 250 6.0 12.0 0.00 0.00 0.00 61 941.1
20260905071520 53 231 8.0 14.0 0.00 0.00 0.00 59 940.8
20260905070003 53 235 7.0 11.0 0.00 0.00 0.00 60 940.5
20260905064533 53 232 8.0 12.0 0.00 0.00 0.00 60 940.3
20260905063017 54 250 10.0 15.0 0.00 0.00 0.00 58 940.2
20260905061551 54 236 5.0 12.0 0.00 0.00 0.00 59 940.0
20260905060027 54 219 6.0 10.0 0.00 0.00 0.00 59 939.9
20260905054606 54 260 3.0 5.0 0.00 0.00 0.00 57 939.8
20260905053039 55 269 3.0 7.0 0.00 0.00 0.00 54 939.7
20260905051519 56 248 3.0 6.0 0.00 0.00 0.00 53 939.5
20260905050053 57 270 2.0 7.0 0.00 0.00 0.00 47 939.5
20260905044532 59 214 6.0 10.0 0.00 0.00 0.00 45 939.4
20260905043038 60 256 9.0 14.0 0.00 0.00 0.00 41 939.4
20260905041551 62 250 7.0 12.0 0.00 0.00 0.00 37 939.4
20260905040042 65 294 5.0 9.0 0.00 0.00 0.00 27 939.3
20260905034531 68 117 1.0 3.0 0.00 0.00 0.00 23 939.2
20260905033007 67 99 2.0 3.0 0.00 0.00 0.00 25 939.1
20260905031548 66 59 1.0 3.0 0.00 0.00 0.00 28 939.2
20260905030044 67 58 2.0 5.0 0.00 0.00 0.00 28 939.2
20260905024527 67 60 2.0 4.0 0.00 0.00 0.00 26 939.1
20260905023059 66 26 4.0 6.0 0.00 0.00 0.00 27 939.1
20260905021536 68 57 3.0 5.0 0.00 0.00 0.00 22 939.3
20260905020014 70 158 2.0 7.0 0.00 0.00 0.00 19 939.2
20260905014548 71 190 2.0 7.0 0.00 0.00 0.00 20 939.4
20260905013106 72 205 3.0 7.0 0.00 0.00 0.00 20 939.5
20260905011546 72 200 4.0 9.0 0.00 0.00 0.00 20 939.6
20260905010051 73 220 6.0 12.0 0.00 0.00 0.00 20 939.7
20260905004632 74 178 9.0 15.0 0.00 0.00 0.00 17 939.7
20260905003033 74 153 8.0 21.0 0.00 0.00 0.00 16 939.8
20260905001518 74 194 10.0 19.0 0.00 0.00 0.00 16 939.9
20260905000003 74 196 9.0 16.0 0.00 0.00 0.00 16 939.8
20260904234546 74 154 4.0 15.0 0.00 0.00 0.00 19 939.8
20260904233039 74 244 6.0 13.0 0.00 0.00 0.00 22 939.8
20260904231518 73 163 7.0 15.0 0.00 0.00 0.00 20 939.9
20260904230109 73 261 8.0 16.0 0.00 0.00 0.00 24 939.9
20260904230002 73 259 9.0 16.0 0.00 0.00 0.00 24 939.8
20260904224540 74 229 5.0 15.0 0.00 0.00 0.00 23 939.9
20260904223028 74 262 8.0 23.0 0.00 0.00 0.00 27 939.9
20260904221510 73 203 7.0 12.0 0.00 0.00 0.00 27 939.9
20260904220052 73 263 6.0 11.0 0.00 0.00 0.00 28 940.0
20260904214542 72 161 1.0 11.0 0.00 0.00 0.00 30 940.1
20260904213033 71 216 8.0 16.0 0.00 0.00 0.00 33 940.1
20260904211506 71 221 7.0 13.0 0.00 0.00 0.00 34 940.2
20260904210044 72 213 7.0 12.0 0.00 0.00 0.00 34 940.1
20260904204524 69 196 6.0 16.0 0.00 0.00 0.00 34 940.1
20260904203012 70 249 3.0 10.0 0.00 0.00 0.00 34 940.2
20260904201550 69 155 2.0 14.0 0.00 0.00 0.00 34 940.3
20260904200035 69 279 5.0 13.0 0.00 0.00 0.00 37 940.5
20260904194516 68 271 7.0 12.0 0.00 0.00 0.00 38 940.6
20260904193010 67 261 7.0 16.0 0.00 0.00 0.00 40 940.6
20260904191546 68 186 5.0 11.0 0.00 0.00 0.00 41 940.8
20260904190032 67 271 5.0 9.0 0.00 0.00 0.00 41 940.9
20260904184521 65 273 5.0 12.0 0.00 0.00 0.00 43 941.1
20260904183050 64 221 3.0 11.0 0.00 0.00 0.00 46 941.3
20260904181543 63 243 8.0 12.0 0.00 0.00 0.00 46 941.6
20260904180041 62 256 4.0 11.0 0.00 0.00 0.00 52 941.6
20260904174508 60 254 5.0 10.0 0.00 0.00 0.00 50 941.5
20260904173048 60 298 7.0 12.0 0.00 0.00 0.00 51 941.5
20260904171603 59 240 5.0 10.0 0.00 0.00 0.00 52 941.6
20260904170012 59 205 4.0 7.0 0.00 0.00 0.00 54 941.5
20260904164614 58 232 4.0 9.0 0.00 0.00 0.00 55 941.5
20260904163048 56 246 4.0 7.0 0.00 0.00 0.00 58 941.4
20260904161539 56 213 3.0 10.0 0.00 0.00 0.00 59 941.5
20260904160030 54 232 5.0 9.0 0.00 0.00 0.00 62 941.5
20260904154513 54 267 6.0 9.0 0.00 0.00 0.00 62 941.4
20260904153058 53 258 4.0 8.0 0.00 0.00 0.00 64 941.3
20260904151535 52 277 6.0 8.0 0.00 0.00 0.00 67 941.2
20260904150016 52 247 4.0 8.0 0.00 0.00 0.00 68 941.3
20260904144600 51 235 3.0 6.0 0.00 0.00 0.00 68 941.1
20260904144501 51 252 3.0 6.0 0.00 0.00 0.00 68 941.1
20260904143040 50 240 2.0 5.0 0.00 0.00 0.00 69 941.0
20260904141526 50 241 0.0 2.0 0.00 0.00 0.00 68 940.8
20260904140011 48 241 0.0 1.0 0.00 0.00 0.00 72 940.6
20260904134552 46 241 0.0 3.0 0.00 0.00 0.00 76 940.4
20260904133034 46 266 4.0 8.0 0.00 0.00 0.00 77 940.1